York, PA

9:12 AM EDT on April 30, 2017 (GMT -0400)
York

Weather History for KTHV - October, 2011

Change the Weather History Date:

Tuesday, October 18, 2011

  Actual Average Record
Temperature  
Mean Temperature 56 °F -  
Max Temperature 72 °F 0 °F 84 °F (2016)
Min Temperature 41 °F - 28 °F (2015)
Degree Days  
Heating Degree Days 8    
Growing Degree Days 6 (Base 50)    
Moisture  
Dew Point 42 °F    
Average Humidity 66    
Maximum Humidity 93    
Minimum Humidity 27    
Precipitation  
Precipitation 0.00 in - - ()
Sea Level Pressure  
Sea Level Pressure 29.84 in    
Wind  
Wind Speed 1 mph (ESE)    
Max Wind Speed 5 mph    
Max Gust Speed -    
Visibility 10 miles    
Events Rain    
Averages and records for this station are not official NWS values.
T = Trace of Precipitation, MM = Missing Value Source: NWS Daily Summary

Daily Weather History Graph

Daily Weather History Graph

Search for Another Location

Airport or City:

Trip Planner

Search our weather history database for the weather conditions in past years. The results will help you decide how hot, cold, wet, or windy it might be!

Date:

Astronomy

Oct. 18, 2011 Rise Set
Actual Time 7:20 AM EDT 6:23 PM EDT
Civil Twilight 6:53 AM EDT 6:51 PM EDT
Nautical Twilight 6:21 AM EDT 7:22 PM EDT
Astronomical Twilight 5:50 AM EDT 7:53 PM EDT
Moon 11:03 PM EDT (10/18) 1:09 PM EDT (10/18)
Length of Visible Light 11h 57m
Length of Day
11h 03m
Waning Gibbous, 65% of the Moon is Illuminated
Oct 18
Waning Gibbous
Oct 19
Last Quarter
Oct 26
New
Nov 2
First Quarter
Nov 10
Full

Hourly Weather History & Observations

Time (EDT) Temp. Dew Point Humidity Pressure Visibility Wind Dir Wind Speed Gust Speed Precip Events Conditions
12:53 AM 45.0 °F 39.9 °F 82% 29.83 in 10.0 mi Calm Calm - N/A   Partly Cloudy
2:53 AM 42.1 °F 39.0 °F 89% 29.83 in 10.0 mi Calm Calm - N/A   Clear
3:53 AM 41.0 °F 39.0 °F 93% 29.83 in 9.0 mi Calm Calm - N/A   Clear
4:53 AM 44.1 °F 42.1 °F 93% 29.84 in 10.0 mi Calm Calm - N/A   Mostly Cloudy
5:53 AM 46.9 °F 44.1 °F 90% 29.86 in 10.0 mi Calm Calm - N/A   Overcast
6:53 AM 46.9 °F 44.1 °F 90% 29.85 in 10.0 mi Calm Calm - N/A   Mostly Cloudy
7:53 AM 48.0 °F 44.1 °F 86% 29.87 in 10.0 mi Calm Calm - N/A   Partly Cloudy
8:53 AM 52.0 °F 45.0 °F 77% 29.88 in 10.0 mi Calm Calm - N/A   Clear
10:53 AM 63.0 °F 42.1 °F 46% 29.88 in 10.0 mi ESE 3.5 mph - N/A   Clear
11:53 AM 66.9 °F 34.0 °F 30% 29.87 in 10.0 mi SSW 4.6 mph - N/A   Clear
12:53 PM 69.1 °F 34.0 °F 27% 29.86 in 10.0 mi Calm Calm - N/A   Clear
2:53 PM 71.1 °F 36.0 °F 28% 29.82 in 10.0 mi Variable 4.6 mph - N/A   Clear
3:53 PM 72.0 °F 39.0 °F 30% 29.81 in 10.0 mi Variable 4.6 mph - N/A   Clear
4:53 PM 68.0 °F 39.9 °F 36% 29.81 in 10.0 mi SE 3.5 mph - N/A   Clear
5:53 PM 64.9 °F 46.0 °F 50% 29.81 in 10.0 mi SE 3.5 mph - N/A   Clear
6:53 PM 57.0 °F 46.0 °F 67% 29.82 in 10.0 mi Calm Calm - 0.00 in Rain Light Rain
7:53 PM 52.0 °F 46.0 °F 80% 29.83 in 10.0 mi Calm Calm - N/A   Clear
8:53 PM 53.1 °F 46.9 °F 80% 29.83 in 10.0 mi Calm Calm - N/A   Clear
9:53 PM 55.0 °F 46.9 °F 74% 29.82 in 10.0 mi Calm Calm - N/A   Clear
10:53 PM 55.9 °F 46.9 °F 72% 29.82 in 10.0 mi East 3.5 mph - N/A   Clear
11:53 PM 57.0 °F 46.9 °F 69% 29.81 in 10.0 mi ENE 4.6 mph - N/A   Clear